Location: Poughquag
(41.6090°N, 73.6820°W)
Time: 12:12:01
(UTC-04:00)

Transit 4A - Pass Details

Date: 02 June 2020
Orbit: 866 x 978 km, 66.8° (Epoch: 06 July)

Event Time Altitude Azimuth Distance (km) Brightness Sun altitude
Rises 03:36:15 0° 256° (WSW) 3,449 - -15.8°
Exits shadow 03:38:52 - 270° (W) 2,669 9.9 -15.5°
Reaches altitude 10° 03:39:26 10° 274° (W) 2,523 9.8 -15.4°
Maximum altitude 03:43:34 20° 319° (NW) 1,952 9.7 -14.9°
Drops below altitude 10° 03:47:46 10° 5° (N) 2,570 11.0 -14.4°
Sets 03:51:04 0° 22° (NNE) 3,535 12.4 -14.0°
